Simultaneous Nadir Overpasses (SNOs) Predictions

Prediction of SNOs between AQUA and GOES-15 Satellite Orbit:

Table of predicted SNOs for the next 14.0 days since TLE Epoch: 10/16/2021
Index Date Time (AQUA) AQUA Lat,Lon GOES-15 Lat,Lon Distance(km) Time Diff (sec)
1 10/16/2021 22:04:05 -0.02,-127.12 -0.24,-128.17 119.76 80
2 10/17/2021 10:25:21 1.10,-132.28 0.22,-128.20 463.76 80
3 10/18/2021 21:51:53 0.62,-124.16 -0.25,-128.21 461.57 80
4 10/19/2021 10:13:09 0.46,-129.32 0.22,-128.24 122.02 80
5 10/21/2021 10:00:57 -0.18,-126.36 0.23,-128.29 219.42 80
6 10/21/2021 22:22:21 -0.90,-131.55 -0.20,-128.28 372.14 80
7 10/23/2021 22:10:09 -0.24,-128.59 -0.21,-128.31 31.50 80
8 10/25/2021 21:57:56 0.36,-125.62 -0.21,-128.34 308.68 80
9 10/26/2021 10:19:12 0.71,-130.78 0.18,-128.37 275.37 80
10 10/28/2021 10:07:00 0.04,-127.83 0.18,-128.39 63.97 80
